Gloucester, Virginia, United States (23061)
Lat: 37.41N, Lon: 76.53W
Wx Zone: VAZ084
Local Info
Past Weather Observations for Today

NOTE: This archive is for the closest National Weather Service station to Gloucester. Information may differ from the station used for current weather conditions.

Click here for Long-term Archive

Time Weather Temperature Dewpoint Humidity Pressure Winds Precip Visibility
17:55
Clear
88°F / 31°C 57°F / 14°C 35% 29.89 in
(1012 mb)
Calm - 10SM
17:35
Clear
88°F / 31°C 57°F / 14°C 35% 29.89 in
(1012 mb)
NW 5.8 mph
(NW 9 kph)
- 10SM
17:15
Clear
88°F / 31°C 57°F / 14°C 35% 29.89 in
(1012 mb)
WNW 4.6 mph
(WNW 7 kph)
- 10SM
16:55
Clear
90°F / 32°C 57°F / 14°C 33% 29.89 in
(1012 mb)
NW 4.6 mph
(NW 7 kph)
- 10SM
16:35
Clear
90°F / 32°C 57°F / 14°C 33% 29.89 in
(1012 mb)
NW 6.9 mph
(NW 11 kph)
- 10SM
16:15
Clear
90°F / 32°C 57°F / 14°C 33% 29.89 in
(1012 mb)
NW 4.6 mph
(NW 7 kph)
- 10SM
15:55
Clear
90°F / 32°C 57°F / 14°C 33% 29.89 in
(1012 mb)
NW 4.6 mph
(NW 7 kph)
- 10SM
15:35
Clear
90°F / 32°C 57°F / 14°C 33% 29.89 in
(1012 mb)
NW 6.9 mph
(NW 11 kph)
- 10SM
15:15
Clear
90°F / 32°C 57°F / 14°C 33% 29.92 in
(1013 mb)
NW 4.6 mph
(NW 7 kph)
- 10SM
14:55
Clear
90°F / 32°C 57°F / 14°C 33% 29.92 in
(1013 mb)
W 8.1 mph
(W 13 kph)
- 10SM
14:35
Partly Cloudy
90°F / 32°C 59°F / 15°C 36% 29.92 in
(1013 mb)
NW 5.8 mph
(NW 9 kph)
- 10SM
14:15
Clear
90°F / 32°C 55°F / 13°C 31% 29.92 in
(1013 mb)
N 4.6 mph
(N 7 kph)
- 10SM
13:55
Clear
90°F / 32°C 59°F / 15°C 36% 29.95 in
(1014 mb)
NW 6.9 mph
(NW 11 kph)
- 10SM
13:35
Clear
90°F / 32°C 57°F / 14°C 33% 29.95 in
(1014 mb)
WNW 4.6 mph
(WNW 7 kph)
- 10SM
13:15
Clear
90°F / 32°C 57°F / 14°C 33% 29.95 in
(1014 mb)
NNW 4.6 mph
(NNW 7 kph)
- 10SM
12:55
Clear
88°F / 31°C 57°F / 14°C 35% 29.95 in
(1014 mb)
N 3.5 mph
(N 6 kph)
- 10SM
12:35
Clear
90°F / 32°C 57°F / 14°C 33% 29.95 in
(1014 mb)
NW 5.8 mph
(NW 9 kph)
- 10SM
12:15
Clear
88°F / 31°C 57°F / 14°C 35% 29.98 in
(1015 mb)
WNW 8.1 mph
(WNW 13 kph)
- 10SM
11:55
Clear
88°F / 31°C 57°F / 14°C 35% 29.98 in
(1015 mb)
N 5.8 mph
(N 9 kph)
- 10SM
11:35
Clear
88°F / 31°C 59°F / 15°C 38% 29.98 in
(1015 mb)
NNW 5.8 mph
(NNW 9 kph)
- 10SM
11:15
Clear
88°F / 31°C 59°F / 15°C 38% 29.98 in
(1015 mb)
NNW 5.8 mph
(NNW 9 kph)
- 10SM
10:55
Clear
88°F / 31°C 59°F / 15°C 38% 29.98 in
(1015 mb)
NNW 6.9 mph
(NNW 11 kph)
- 10SM
10:35
Clear
86°F / 30°C 61°F / 16°C 43% 29.98 in
(1015 mb)
NE 5.8 mph
(NE 9 kph)
- 10SM
10:15
Clear
86°F / 30°C 63°F / 17°C 46% 29.98 in
(1015 mb)
N 5.8 mph
(N 9 kph)
- 10SM
09:55
Clear
86°F / 30°C 63°F / 17°C 46% 29.98 in
(1015 mb)
N 6.9 mph
(N 11 kph)
- 10SM
09:35
Clear
84°F / 29°C 64°F / 18°C 51% 29.98 in
(1015 mb)
NNW 4.6 mph
(NNW 7 kph)
- 10SM
09:15
Clear
84°F / 29°C 64°F / 18°C 51% 29.98 in
(1015 mb)
NNW 5.8 mph
(NNW 9 kph)
- 10SM
08:55
Clear
82°F / 28°C 66°F / 19°C 58% 29.98 in
(1015 mb)
N 4.6 mph
(N 7 kph)
- 10SM
08:35
Clear
81°F / 27°C 66°F / 19°C 62% 29.98 in
(1015 mb)
NNW 4.6 mph
(NNW 7 kph)
- 10SM
08:15
Clear
81°F / 27°C 66°F / 19°C 62% 29.98 in
(1015 mb)
N 3.5 mph
(N 6 kph)
- 10SM
07:55
Clear
79°F / 26°C 68°F / 20°C 70% 29.98 in
(1015 mb)
N 4.6 mph
(N 7 kph)
- 10SM
07:35
Clear
79°F / 26°C 68°F / 20°C 70% 29.98 in
(1015 mb)
Calm - 10SM
07:15
Clear
77°F / 25°C 68°F / 20°C 74% 29.98 in
(1015 mb)
N 3.5 mph
(N 6 kph)
- 10SM
06:55
Clear
75°F / 24°C 70°F / 21°C 83% 29.95 in
(1014 mb)
NNW 4.6 mph
(NNW 7 kph)
- 10SM
06:35
Clear
75°F / 24°C 70°F / 21°C 83% 29.95 in
(1014 mb)
NNW 3.5 mph
(NNW 6 kph)
- 10SM
06:15
Clear
75°F / 24°C 70°F / 21°C 83% 29.95 in
(1014 mb)
NNW 3.5 mph
(NNW 6 kph)
- 10SM
05:55
Clear
75°F / 24°C 72°F / 22°C 89% 29.95 in
(1014 mb)
NW 5.8 mph
(NW 9 kph)
- 10SM
05:35
Partly Cloudy
75°F / 24°C 72°F / 22°C 89% 29.95 in
(1014 mb)
Calm - 10SM
05:15
Mostly Cloudy
75°F / 24°C 72°F / 22°C 89% 29.92 in
(1013 mb)
Calm - 7SM
04:55
Overcast
75°F / 24°C 73°F / 23°C 94% 29.92 in
(1013 mb)
Calm - 10SM
04:35
Overcast
75°F / 24°C 73°F / 23°C 94% 29.92 in
(1013 mb)
Calm - 4SM
04:15
Mostly Cloudy
75°F / 24°C 73°F / 23°C 94% 29.92 in
(1013 mb)
Calm - 1 1/2SM
03:55
Partly Cloudy
75°F / 24°C 73°F / 23°C 94% 29.92 in
(1013 mb)
Calm - 1 1/4SM
03:35
Mostly Cloudy
75°F / 24°C 73°F / 23°C 94% 29.92 in
(1013 mb)
Calm - 4SM
03:15
Overcast
77°F / 25°C 73°F / 23°C 89% 29.92 in
(1013 mb)
Calm - 5SM
02:55
Overcast
77°F / 25°C 73°F / 23°C 89% 29.92 in
(1013 mb)
Calm - 4SM
02:35
Overcast
77°F / 25°C 73°F / 23°C 89% 29.92 in
(1013 mb)
N 3.5 mph
(N 6 kph)
- 5SM
02:15
Mostly Cloudy
75°F / 24°C 73°F / 23°C 94% 29.92 in
(1013 mb)
Calm - 3SM
01:55
Mostly Cloudy
77°F / 25°C 73°F / 23°C 89% 29.92 in
(1013 mb)
Calm - 7SM
01:35
Mostly Cloudy
77°F / 25°C 73°F / 23°C 89% 29.92 in
(1013 mb)
Calm - 7SM
01:15
Overcast
77°F / 25°C 73°F / 23°C 89% 29.92 in
(1013 mb)
W 4.6 mph
(W 7 kph)
- 7SM
00:55
Overcast
77°F / 25°C 73°F / 23°C 89% 29.89 in
(1012 mb)
E 4.6 mph
(E 7 kph)
0.55 in
(13.97 mm)
7SM
00:35
Overcast
77°F / 25°C 72°F / 22°C 83% 29.92 in
(1013 mb)
NE 5.8 mph
(NE 9 kph)
0.48 in
(12.19 mm)
3/4SM
00:15
Overcast
77°F / 25°C 72°F / 22°C 83% 29.92 in
(1013 mb)
Calm 0.20 in
(5.08 mm)
1 3/4SM
Time Weather Temperature Dewpoint Humidity Pressure Winds Precip Visibility


Weather for websites

WeatherForYou.com, LLC is not responsible for any damages or problems caused by this service. Current weather conditions are obtained from the closest station including government and personal stations which may have varying degrees of accuracy. Weather forecasts are derived from the NOAA NDFD. Like all things, this site belongs to Jesus Christ... He just trusts us to maintain it. If you have any questions or comments email webmaster@weatherforyou.com

Copyright © 2015, WeatherForYou.com LLC. All rights reserved.